Reflectivity
-20 -20 -20 -5 -2 5 26 35 28 40 34 7 6 -5 -18 -20 -20 -20 -20 -20 -20 -18
-20 -19 -8 17 32 10 32 32 35 45 35 31 25 5 -16 -20 -20 -20 -20 -20 -20 -20
14 4 6 35 15 28 32 30 26 50 42 26 11 -14 -20 -20 -20 -20 -20 -20 -20 -20
-3 12 17 18 28 13 29 25 11 32 33 14 -1 -20 -20 -20 -20 -20 -20 -20 -20 -20
28 26 10 -20 -20 -20 18 5 13 16 19 12 -0 -17 -20 -20 -20 -20 -20 -20 -20 -20
21 21 3 -8 -16 -1 33 31 27 23 11 -13 -4 -20 -20 -20 -20 -20 -20 -20 -20 -20
4 20 28 32 36 27 32 17 -16 -0 10 15 -17 -20 -20 -20 -20 -20 -7 -0 -6 -4
9 25 25 29 28 33 25 14 27 17 -2 -12 -11 -20 -20 -20 -14 -6 -3 -19 -20 -13
13 27 33 30 28 31 26 12 -7 -0 -20 -19 25 -17 -1 4 -8 16 -20 -20 -20 -20
32 36 36 26 31 35 33 28 22 -7 -6 -19 -19 -8 7 -6 -5 9 -20 -20 -20 -20
24 32 33 14 10 8 4 -14 -7 -5 2 -1 -2 -19 2 7 9 -20 -20 -20 -20 -20
17 27 38 18 14 28 33 -11 3 8 3 -4 -20 -20 -18 -8 -18 -20 -20 -20 -20 -20
33 37 19 32 37 20 20 22 17 7 -11 -20 -20 -20 -20 -20 -20 -20 -20 -20 -20 -5
22 23 27 28 25 31 22 4 -20 -20 -20 -17 -20 -20 -20 -20 -20 -20 -20 -20 -20 -20
Wind_Speed
6 5 5 6 4 6 10 10 12 8 10 10 10 11 10 8 7 8 7 7 6 4
11 11 10 13 11 11 12 11 20 13 14 13 13 10 13 10 9 9 8 8 8 6
15 15 14 14 15 13 10 10 17 14 10 11 14 15 13 9 11 11 8 7 8 8
14 15 15 14 12 11 10 15 15 14 10 14 15 14 12 12 12 12 11 10 9 7
13 14 17 17 14 13 14 17 15 14 14 15 15 14 12 13 11 12 11 9 7 8
12 13 15 15 11 11 16 13 15 15 16 14 13 13 12 12 12 12 10 8 6 8
14 10 15 13 11 12 15 13 14 16 15 14 14 13 11 10 9 9 9 6 7 8
13 15 11 14 13 13 13 13 16 15 14 15 14 10 10 11 11 9 7 7 8 8
12 15 11 12 12 12 14 13 16 14 14 15 13 17 17 11 9 8 8 7 8 8
11 13 11 11 12 11 11 14 14 13 14 15 16 20 16 14 9 8 8 9 9 8
13 11 12 12 13 13 12 13 11 14 13 14 14 22 22 11 9 9 9 9 10 11
13 12 12 14 11 9 12 11 13 13 13 15 16 24 22 13 10 10 11 11 11 13
14 14 13 12 11 11 10 10 10 14 15 19 14 22 24 20 10 11 10 11 12 14
14 13 12 10 8 9 10 12 13 14 13 14 15 15 23 23 12 11 10 10 10 10
Wind_Direction
169 186 190 198 142 70 62 49 25 70 88 82 84 86 90 88 73 60 55 48 43 40
58 67 72 71 72 73 77 82 54 337 69 66 75 78 75 71 72 66 53 40 38 41
61 59 63 63 65 72 88 107 93 59 33 68 68 62 64 71 65 64 51 46 40 37
83 79 67 67 65 64 76 77 71 88 60 57 61 64 66 65 61 62 56 46 38 35
70 83 88 80 69 79 64 71 77 78 72 67 61 56 61 65 59 58 55 42 34 27
90 82 81 86 92 73 81 78 86 84 76 73 73 73 62 60 65 61 64 52 38 32
90 81 96 83 71 84 88 84 73 71 73 70 61 54 54 67 62 58 56 41 41 33
96 89 76 89 83 78 74 78 73 69 62 62 57 44 46 56 51 39 33 23 26 22
85 84 83 87 93 96 86 79 78 74 65 56 57 45 49 47 56 42 32 14 15 8
80 81 85 81 84 76 76 79 72 75 74 60 56 46 47 47 40 39 22 14 7 359
85 79 87 84 79 77 74 74 79 70 73 65 52 40 31 21 38 30 14 357 357 352
77 81 73 68 69 70 76 70 71 65 56 57 46 35 28 17 27 14 359 352 357 350
69 69 68 68 65 65 65 73 73 66 53 44 42 32 26 19 18 4 355 348 350 349
77 70 60 65 68 60 70 70 64 60 52 44 35 31 25 22 14 3 350 350 345 336